Starlink 4509

operational
NORAD ID: 53404 Int'l Des: 2022-097 Owner: SPXS Country: US Constellation: starlink
LEOCIRCULAR

About Starlink 4509

Description loading...

Live Position

Loading 3D Globe...

Upcoming Passes

Altitude History

Altitude vs Time

uPlot chart will show altitude changes over time

Two-Line Element Set

1 53404U 22097S 26102.89415058 -.00000948 00000-0 -41482-4 0 9993
2 53404 53.2197 320.5046 0001412 87.8613 272.2541 15.08826819203811
Epoch: Apr 12, 2026 • Age: 11 hours

Current Status

Altitude 541.3 km
Velocity 7.60 km/s
Sub-Earth Point 32.93°N, 13.97°E
Launch Date Aug 10, 2022
Age 3.6 years
Type internet

Technical Details

Classification Payload
Mass 297.00 kg
Dry Mass 275.00 kg
Total Mass 297.00 kg
Length 0.20 m
Diameter 2.80 m
Span 9.00 m
Shape Box + pan
Manufacturer SPXS
Bus Type Starlink
Phase Status In Orbit
Owner/State SPXS/US

Large Constellations

Loading constellations...